Regional Weather Roundup
Issued by NWS Cleveland, OH

Home | Current Version | Previous Version | Graphics & Text | Print | Product List | Glossary On
Versions: 1 2 3 4 5 6 7 8 9 10 11 12 13 14 15 16 17 18 19 20 21 22 23 24 25 26 27 28 29 30 31 32 33 34 35 36 37 38 39 40 41 42 43 44 45 46 47 48 49 50
000
ASUS41 KCLE 130512
RWRCLE
OHIO REGIONAL WEATHER ROUNDUP
NATIONAL WEATHER SERVICE WILMINGTON, OH
1200 AM EST WED DEC 13 2017

NOTE: "FAIR" INDICATES FEW OR NO CLOUDS BELOW 12,000 FEET WITH NO
SIGNIFICANT WEATHER AND/OR OBSTRUCTIONS TO VISIBILITY.

OHZ001>008-015>018-024>027-034-035-043-044-130600-
   NORTHWEST OHIO

CITY           SKY/WX    TMP DP  RH WIND       PRES   REMARKS
DEFIANCE       FLURRIES  18  11  74 VRB5      29.94F WCI  11
FINDLAY        CLOUDY    19   5  54 NW12      29.91F WCI   7
TOLEDO EXPRESS CLOUDY    18   8  65 W10       29.91F WCI   6
TOLEDO EXEC    CLOUDY    19   3  49 NW12      29.91F WCI   7
LIMA           LGT SNOW  18  15  88 NW7       29.91F FOG     WCI   9
$$

OHZ009>014-019>023-028>033-038-089-130600-
   NORTHEAST OHIO

CITY           SKY/WX    TMP DP  RH WIND       PRES   REMARKS
CLE-HOPKINS    MOCLDY    19   3  49 NW18G26   29.86F WCI   4
CLE-LAKEFRONT  CLOUDY    20   8  60 NW26G36   29.83F WCI   2
CUY CO. ARPT   NOT AVBL
LORAIN-ELYRIA  CLOUDY    18   2  49 NW13      29.86S WCI   5
ASHTABULA      CLOUDY    16   6  65 NW12G22   29.76F WCI   3
AKRON-CANTON   LGT SNOW  16  10  77 W10       29.81S VSB 1   WCI   4
WOOSTER        CLOUDY    14   5  67 W13       29.84F WCI   0
MANSFIELD      CLOUDY    16   4  59 VRB7      29.85F WCI   6
YOUNGSTOWN     LGT SNOW  15  10  80 W14       29.75S VSB 1   WCI   0
$$

OHZ042-051>053-060>062-070>072-077>081-130600-
  SOUTHWEST OHIO

CITY           SKY/WX    TMP DP  RH WIND       PRES   REMARKS
CINC-COVINGTON FAIR      17  10  74 W6        30.00S WCI   9
CINC-LUNKEN    FAIR      21   8  57 NW6       30.04F WCI  13
HAMILTON       FAIR      13   9  84 CALM      30.02F
DAYTON         MOCLDY    18   9  68 W14       29.95F WCI   4
WRIGHT-PAT AFB CLOUDY    20   6  54 W12       29.95F WCI   9
DAYTON GENERAL FAIR      18   7  62 W6        29.96F WCI  10
WILMINGTON     FAIR      17   8  67 W10       29.95F WCI   5
$$

OHZ036-037-039>041-045>050-054>059-063>069-073>076-082>088-130600-
  CENTRAL AND SOUTHEAST OHIO

CITY           SKY/WX    TMP DP  RH WIND       PRES   REMARKS
COLUMBUS       LGT SNOW  19  16  88 NW9       29.93S VSB 1   WCI   8
OSU AIRPORT    CLOUDY    19  14  81 W10       29.92F WCI   7
BOLTON FIELD   CLOUDY    19  11  71 W9        29.93F WCI   8
RICKENBACK AFB CLOUDY    20  13  76 W12       29.93F WCI   8
NEWARK         CLOUDY    20   6  55 NW16      29.90F WCI   6
MARION         CLOUDY    19   5  54 NW14      29.90F WCI   6
LANCASTER      LGT SNOW  18  16  92 NW8       29.92F FOG     WCI   8
ZANESVILLE     CLOUDY    19   8  62 NW8       29.89S WCI   9
NEW PHILLY     FAIR      16   3  56 W10       29.87S WCI   4
$$




USA.gov is the U.S. government's official web portal to all federal, state and local government web resources and services.